Ogallala, NE

1:04 PM MST on December 11, 2017 (GMT -0700)
Searle

Weather History for KOGA - April, 2012

Change the Weather History Date:

Tuesday, April 3, 2012

  Actual Average Record
Temperature  
Mean Temperature 44 °F -  
Max Temperature 50 °F 56 °F 81 °F (1981)
Min Temperature 39 °F 27 °F 0 °F (1975)
Degree Days  
Heating Degree Days 20    
Moisture  
Dew Point 33 °F    
Average Humidity 65    
Maximum Humidity 84    
Minimum Humidity 49    
Precipitation  
Precipitation 0.05 in - - ()
Sea Level Pressure  
Sea Level Pressure 30.09 in    
Wind  
Wind Speed 20 mph (NNE)    
Max Wind Speed 31 mph    
Max Gust Speed 45 mph    
Visibility 10 miles    
Events Rain    
Averages and records for this station are not official NWS values.
T = Trace of Precipitation, MM = Missing Value Source: NWS Daily Summary

Daily Weather History Graph

Daily Weather History Graph

Search for Another Location

Airport or City:

Trip Planner

Search our weather history database for the weather conditions in past years. The results will help you decide how hot, cold, wet, or windy it might be!

Date:

Astronomy

Apr. 03, 2012 Rise Set
Actual Time 6:26 AM MDT 7:14 PM MDT
Civil Twilight 5:58 AM MDT 7:42 PM MDT
Nautical Twilight 5:25 AM MDT 8:15 PM MDT
Astronomical Twilight 4:51 AM MDT 8:50 PM MDT
Moon 3:59 PM MDT (4/3) 4:17 AM MDT (4/3)
Length of Visible Light 13h 44m
Length of Day
12h 48m
Waxing Gibbous, 87% of the Moon is Illuminated
Apr 3
Waxing Gibbous
Apr 6
Full
Apr 13
Last Quarter
Apr 21
New
Apr 29
First Quarter

Hourly Weather History & Observations

Time (MDT) Temp. Windchill Dew Point Humidity Pressure Visibility Wind Dir Wind Speed Gust Speed Precip Events Conditions
12:15 AM 41.9 °F 32.1 °F 35.6 °F 78% 30.08 in 10.0 mi North 24.2 mph 31.1 mph N/A   Overcast
12:35 AM 41.9 °F 32.3 °F 35.6 °F 78% 30.08 in 10.0 mi North 23.0 mph 31.1 mph N/A   Overcast
12:55 AM 41.9 °F 32.6 °F 35.6 °F 78% 30.08 in 10.0 mi North 21.9 mph 32.2 mph N/A   Overcast
1:15 AM 41.9 °F 32.8 °F 35.2 °F 77% 30.10 in 10.0 mi North 20.7 mph 27.6 mph N/A   Overcast
1:35 AM 41.9 °F 33.1 °F 35.2 °F 77% 30.10 in 10.0 mi NNE 19.6 mph 31.1 mph N/A   Overcast
1:55 AM 41.7 °F 31.4 °F 35.1 °F 77% 30.07 in 10.0 mi North 26.5 mph 29.9 mph N/A   Overcast
2:15 AM 41.0 °F 29.7 °F 34.7 °F 78% 30.02 in 10.0 mi North 31.1 mph 36.8 mph N/A   Overcast
2:35 AM 41.0 °F 30.2 °F 34.0 °F 76% 30.02 in 10.0 mi North 27.6 mph 44.9 mph N/A   Overcast
2:55 AM 41.0 °F 31.6 °F 33.3 °F 74% 30.05 in 10.0 mi NNE 20.7 mph 28.8 mph N/A   Overcast
3:15 AM 41.4 °F 32.7 °F 33.3 °F 73% 30.08 in 10.0 mi NNE 18.4 mph 27.6 mph N/A   Overcast
3:35 AM 41.4 °F 34.0 °F 33.3 °F 73% 30.10 in 10.0 mi NNE 13.8 mph 24.2 mph N/A   Overcast
3:55 AM 41.4 °F 32.7 °F 32.9 °F 72% 30.11 in 10.0 mi NE 18.4 mph 29.9 mph N/A   Overcast
4:15 AM 41.0 °F 31.6 °F 32.9 °F 73% 30.09 in 10.0 mi North 20.7 mph 25.3 mph N/A   Overcast
4:35 AM 41.0 °F 33.5 °F 32.9 °F 73% 30.11 in 10.0 mi NNE 13.8 mph 21.9 mph N/A   Overcast
4:55 AM 41.0 °F 31.6 °F 32.7 °F 72% 30.11 in 10.0 mi NNE 20.7 mph - N/A   Overcast
5:15 AM 40.6 °F 31.2 °F 32.9 °F 74% 30.09 in 10.0 mi NNE 20.7 mph 25.3 mph N/A   Overcast
5:35 AM 39.7 °F 30.6 °F 34.0 °F 80% 30.10 in 10.0 mi NNE 18.4 mph 26.5 mph N/A Rain Light Rain
5:55 AM 39.4 °F 32.3 °F 34.9 °F 84% 30.11 in 10.0 mi NNE 11.5 mph 20.7 mph N/A   Light Drizzle
6:15 AM 39.4 °F 30.4 °F 34.5 °F 83% 30.12 in 10.0 mi NNE 17.3 mph 26.5 mph N/A   Overcast
6:35 AM 39.4 °F 30.7 °F 34.3 °F 82% 30.12 in 10.0 mi NNE 16.1 mph - N/A   Overcast
6:55 AM 39.2 °F 29.6 °F 34.0 °F 82% 30.12 in 10.0 mi NNE 19.6 mph 25.3 mph N/A   Light Drizzle
7:15 AM 39.2 °F 27.6 °F 34.7 °F 84% 30.08 in 10.0 mi NNE 28.8 mph 33.4 mph 0.02 in Rain Rain
7:35 AM 39.2 °F 29.0 °F 34.3 °F 83% 30.07 in 10.0 mi NE 21.9 mph 41.4 mph 0.02 in   Overcast
7:55 AM 39.4 °F 30.7 °F 34.2 °F 82% 30.10 in 10.0 mi NE 16.1 mph 32.2 mph 0.02 in   Overcast
8:15 AM 39.7 °F 30.9 °F 34.0 °F 80% 30.11 in 10.0 mi NE 17.3 mph 26.5 mph N/A   Overcast
8:35 AM 40.1 °F 31.0 °F 34.5 °F 80% 30.11 in 10.0 mi NNE 18.4 mph 24.2 mph N/A   Overcast
8:55 AM 41.0 °F 31.9 °F 34.0 °F 76% 30.11 in 10.0 mi NE 19.6 mph 28.8 mph N/A   Overcast
9:15 AM 41.5 °F 32.1 °F 34.0 °F 75% 30.10 in 10.0 mi NNE 21.9 mph 27.6 mph N/A   Overcast
9:35 AM 42.1 °F 33.1 °F 34.0 °F 73% 30.11 in 10.0 mi NE 20.7 mph 29.9 mph N/A   Overcast
9:55 AM 42.8 °F 33.3 °F 33.4 °F 70% 30.12 in 10.0 mi NE 24.2 mph 28.8 mph N/A   Overcast
10:15 AM 43.5 °F 34.3 °F 33.4 °F 68% 30.12 in 10.0 mi NE 24.2 mph 31.1 mph N/A   Overcast
10:35 AM 43.9 °F 36.2 °F 32.9 °F 65% 30.14 in 10.0 mi NE 17.3 mph 27.6 mph N/A   Overcast
10:55 AM 44.6 °F 36.4 °F 32.7 °F 63% 30.13 in 10.0 mi NE 20.7 mph 26.5 mph N/A   Overcast
11:15 AM 45.5 °F 38.1 °F 32.4 °F 60% 30.13 in 10.0 mi NE 18.4 mph 31.1 mph N/A   Overcast
11:55 AM 46.4 °F 38.7 °F 32.0 °F 57% 30.11 in 10.0 mi NNE 20.7 mph 27.6 mph N/A   Overcast
12:15 PM 47.1 °F - 31.8 °F 55% 30.11 in 10.0 mi NE 23.0 mph 27.6 mph N/A   Overcast
12:35 PM 47.3 °F - 31.3 °F 54% 30.12 in 10.0 mi NNE 19.6 mph 24.2 mph N/A   Overcast
12:55 PM 47.5 °F - 31.3 °F 53% 30.11 in 10.0 mi NNE 19.6 mph 23.0 mph N/A   Overcast
1:15 PM 47.8 °F - 31.5 °F 53% 30.11 in 10.0 mi NNE 16.1 mph - N/A   Overcast
1:35 PM 48.6 °F - 31.6 °F 52% 30.11 in 10.0 mi NNE 15.0 mph 20.7 mph 0.03 in   Overcast
1:55 PM 48.2 °F - 32.0 °F 54% 30.10 in 10.0 mi NE 16.1 mph - 0.03 in   Overcast
2:15 PM 48.7 °F - 32.4 °F 53% 30.10 in 10.0 mi NE 17.3 mph 20.7 mph N/A   Overcast
2:35 PM 48.9 °F - 32.9 °F 54% 30.09 in 10.0 mi NE 17.3 mph 24.2 mph N/A   Overcast
2:55 PM 49.1 °F - 32.9 °F 54% 30.09 in 10.0 mi NE 16.1 mph - N/A   Overcast
3:35 PM 48.7 °F - 33.1 °F 55% 30.08 in 10.0 mi NE 16.1 mph 23.0 mph N/A   Overcast
3:55 PM 49.3 °F - 32.2 °F 52% 30.08 in 10.0 mi NNE 16.1 mph 19.6 mph N/A   Overcast
4:15 PM 49.1 °F - 32.0 °F 52% 30.08 in 10.0 mi NE 16.1 mph - N/A   Overcast
4:35 PM 49.5 °F - 32.0 °F 51% 30.07 in 10.0 mi NNE 13.8 mph - N/A   Overcast
4:55 PM 50.0 °F - 32.0 °F 50% 30.06 in 10.0 mi NNE 15.0 mph 19.6 mph N/A   Overcast
5:15 PM 50.4 °F - 32.0 °F 49% 30.05 in 10.0 mi NNE 12.7 mph 19.6 mph N/A   Overcast
5:55 PM 50.4 °F - 32.0 °F 49% 30.05 in 10.0 mi NE 15.0 mph 21.9 mph N/A   Overcast
6:15 PM 50.2 °F - 31.8 °F 49% 30.06 in 10.0 mi NE 12.7 mph - N/A   Overcast
6:35 PM 50.0 °F - 32.0 °F 50% 30.05 in 10.0 mi NE 12.7 mph - N/A   Overcast
7:15 PM 49.5 °F - 31.8 °F 51% 30.05 in 10.0 mi NE 15.0 mph 19.6 mph N/A   Overcast
7:35 PM 49.1 °F - 31.8 °F 51% 30.04 in 10.0 mi NE 11.5 mph - N/A   Overcast
7:55 PM 49.1 °F - 31.5 °F 51% 30.04 in 10.0 mi NE 11.5 mph - N/A   Overcast
8:15 PM 49.1 °F - 31.5 °F 51% 30.05 in 10.0 mi NNE 6.9 mph - N/A   Overcast
8:35 PM 49.1 °F - 31.5 °F 51% 30.05 in 10.0 mi NNE 8.1 mph - N/A   Overcast
8:55 PM 49.1 °F - 30.9 °F 50% 30.05 in 10.0 mi NE 8.1 mph - N/A   Overcast
9:15 PM 49.1 °F - 30.9 °F 50% 30.05 in 10.0 mi NNE 5.8 mph - N/A   Overcast
9:35 PM 48.7 °F - 30.7 °F 50% 30.05 in 10.0 mi NNE 6.9 mph - N/A   Overcast
9:55 PM 48.6 °F - 30.7 °F 50% 30.04 in 10.0 mi North 10.4 mph - N/A   Overcast
10:15 PM 49.1 °F - 28.9 °F 46% 30.02 in 10.0 mi North 13.8 mph - N/A   Overcast
10:35 PM 49.3 °F - 28.6 °F 45% 30.02 in 10.0 mi NNE 11.5 mph - N/A   Overcast
10:55 PM 49.5 °F - 28.4 °F 44% 30.01 in 10.0 mi NNE 11.5 mph - N/A   Overcast
11:15 PM 49.3 °F - 26.8 °F 42% 30.01 in 10.0 mi NNE 12.7 mph - N/A   Overcast
11:35 PM 49.3 °F - 26.1 °F 40% 30.01 in 10.0 mi NNE 11.5 mph - N/A   Overcast
11:55 PM 49.1 °F - 25.7 °F 40% 30.00 in 10.0 mi NNE 10.4 mph - N/A   Overcast